Simultaneous Nadir Overpasses (SNOs) Predictions

Prediction of SNOs between GOES-14 and NOAA-20 Satellite Orbit:

Table of predicted SNOs for the next 14.0 days since TLE Epoch: 7/12/2019
Index Date Time (GOES-14) GOES-14 Lat,Lon NOAA-20 Lat,Lon Distance(km) Time Diff (sec)
1 07/12/2019 20:17:09 0.18,-104.83 0.65,-102.85 226.01 80
2 07/14/2019 08:36:15 -0.21,-104.67 0.57,-108.11 393.01 80
3 07/15/2019 08:20:09 -0.20,-104.67 -0.43,-103.58 124.33 80
4 07/16/2019 20:39:27 0.23,-104.85 -0.65,-108.90 461.42 80
5 07/17/2019 20:23:21 0.22,-104.86 0.34,-104.37 56.27 80
6 07/20/2019 08:23:42 -0.23,-104.70 -0.12,-105.09 44.40 80
7 07/21/2019 08:07:37 -0.22,-104.71 -1.12,-100.55 473.31 80
8 07/22/2019 20:26:54 0.25,-104.89 0.04,-105.88 112.11 80
9 07/23/2019 20:10:49 0.23,-104.90 1.04,-101.34 405.83 80
10 07/25/2019 08:29:55 -0.26,-104.75 0.18,-106.60 211.99 80
11 07/26/2019 08:13:50 -0.25,-104.75 -0.88,-102.08 305.51 80




NCC Satellite Simultaneous Nadir Overpasses (SNOs) Prediction Service
